This is the latest recevied weather packets stored in our database for station/object IW1CGW-23. If no packets are shown the sender has not sent any weather packets the latest 10 day(s).
| Time | Temp. | Humidity | Pressure | Rain* | Wind** | Luminosity | Snow |
|---|---|---|---|---|---|---|---|
| 1777986236 | 17.22° C | 88% | 1013.6 hPa | - | - | - | - |
| 1777984670 | 16.67° C | 88% | 1013.6 hPa | - | - | - | - |
| 1777983887 | 16.67° C | 88% | 1013.6 hPa | - | - | - | - |
| 1777977621 | 16.67° C | 89% | 1013.7 hPa | - | - | - | - |
| 1777976838 | 16.67° C | 90% | 1013.6 hPa | - | - | - | - |
| 1777974489 | 16.11° C | 91% | 1013.6 hPa | - | - | - | - |
| 1777972141 | 16.11° C | 90% | 1013.4 hPa | - | - | - | - |
| 1777971358 | 16.11° C | 90% | 1013.4 hPa | - | - | - | - |
| 1777969793 | 15.56° C | 89% | 1013.2 hPa | - | - | - | - |
| 1777969011 | 16.11° C | 89% | 1013.1 hPa | - | - | - | - |
| 1777968228 | 16.11° C | 89% | 1013 hPa | - | - | - | - |
| 1777965878 | 16.11° C | 90% | 1012.9 hPa | - | - | - | - |
| 1777965095 | 15.56° C | 90% | 1012.9 hPa | - | - | - | - |
| 1777964313 | 16.67° C | 88% | 1012.9 hPa | - | - | - | - |
| 1777963529 | 16.67° C | 88% | 1012.5 hPa | - | - | - | - |
| 1777961966 | 18.89° C | 89% | 1012.2 hPa | - | - | - | - |
| 1777960396 | 16.67° C | 90% | 1012.1 hPa | - | - | - | - |
| 1777959612 | 18.33° C | 89% | 1012 hPa | - | - | - | - |
| 1777958828 | 18.89° C | 91% | 1011.8 hPa | - | - | - | - |
| 1777957285 | 13.89° C | 93% | 1011.5 hPa | - | - | - | - |
| 1777954922 | 14.44° C | 92% | 1011.4 hPa | - | - | - | - |
| 1777952578 | 13.89° C | 92% | 1011.5 hPa | - | - | - | - |
| 1777951797 | 14.44° C | 92% | 1011.5 hPa | - | - | - | - |
| 1777951041 | 13.89° C | 92% | 1011.7 hPa | - | - | - | - |
| 1777950235 | 13.89° C | 92% | 1011.7 hPa | - | - | - | - |
* Rain since midnight (hover to see other rain measurements)
** Current wind speed in m/s (hover to see current wind gust speed)